Location: Saint Louis
(38.6272°N, 90.1978°W)
Time: 03:27:55
(UTC-05:00)

ISS - Pass Details

Date: 16 February 2013
Orbit: 402 x 404 km, 51.6° (Epoch: 27 May)

Event Time Altitude Azimuth Distance (km) Brightness Sun altitude
Rises 18:23:24 0° 294° (WNW) 2,320 1.6 -9.1°
Reaches altitude 10° 18:27:15 10° 340° (NNW) 1,468 -0.3 -9.9°
Maximum altitude 18:27:45 10° 349° (N) 1,455 -0.5 -9.9°
Drops below altitude 10° 18:28:14 10° 358° (N) 1,471 -0.5 -10.0°
Enters shadow 18:30:33 - 30° (NNE) 1,875 -0.3 -10.5°
